Fort Indiantown Gap, PA

4:37 PM EST on November 14, 2019 (GMT -0500)
Muir Army Air Field

Weather History for KMUI - August, 2019

Change the Weather History Date:

Friday, August 23, 2019

  Actual Average Record
Temperature  
Mean Temperature 67 °F -  
Max Temperature 74 °F 80 °F 91 °F (1996)
Min Temperature 61 °F 64 °F 50 °F (2011)
Cooling Degree Days 2    
Growing Degree Days 17 (Base 50)    
Moisture  
Dew Point 62 °F    
Average Humidity 82    
Maximum Humidity 94    
Minimum Humidity 55    
Precipitation  
Precipitation 0.24 in - - ()
Sea Level Pressure  
Sea Level Pressure 30.01 in    
Wind  
Wind Speed 3 mph (NNW)    
Max Wind Speed 12 mph    
Max Gust Speed 20 mph    
Visibility 10 miles    
Events Rain    
Averages and records for this station are not official NWS values.
T = Trace of Precipitation, MM = Missing Value Source: NWS Daily Summary

Daily Weather History Graph

Daily Weather History Graph

Search for Another Location

Airport or City:

Astronomy

Aug. 23, 2019 Rise Set
Actual Time 6:24 AM EDT 7:52 PM EDT
Civil Twilight 5:56 AM EDT 8:21 PM EDT
Nautical Twilight 5:21 AM EDT 8:55 PM EDT
Astronomical Twilight 4:45 AM EDT 9:31 PM EDT
Moon No Moon Rise 2:00 PM EDT (8/23)
Length of Visible Light 14h 24m
Length of Day
13h 27m
Waning Gibbous, 50% of the Moon is Illuminated
Aug 23
Waning Gibbous
Aug 30
New
Sep 5
First Quarter
Sep 14
Full
Sep 21
Last Quarter

Hourly Weather History & Observations

Time (EDT) Temp. Dew Point Humidity Pressure Visibility Wind Dir Wind Speed Gust Speed Precip Events Conditions
12:15 AM 73.4 °F 68.0 °F 83% 29.96 in 10.0 mi WSW 3.5 mph - N/A   Light Drizzle
12:31 AM 73.4 °F 68.0 °F 83% 29.97 in 10.0 mi SW 5.8 mph - N/A   Drizzle
12:56 AM 73.4 °F 68.0 °F 83% 29.96 in 10.0 mi Calm Calm - 0.00 in Rain Light Rain
1:46 AM 71.6 °F 68.0 °F 88% 29.96 in 10.0 mi Calm Calm - N/A   Overcast
1:54 AM 71.6 °F 68.0 °F 88% 29.96 in 10.0 mi Calm Calm - N/A   Overcast
1:56 AM 71.4 °F 68.4 °F 90% 29.96 in 10.0 mi Calm Calm - 0.00 in   Overcast
2:06 AM 71.6 °F 68.0 °F 88% 29.95 in 10.0 mi Calm Calm - N/A Rain Light Rain
2:16 AM 71.6 °F 68.0 °F 88% 29.95 in 10.0 mi Calm Calm - N/A   Overcast
2:40 AM 71.6 °F 68.0 °F 88% 29.95 in 10.0 mi Calm Calm - N/A   Overcast
2:45 AM 71.6 °F 66.2 °F 83% 29.95 in 10.0 mi Calm Calm - N/A   Light Drizzle
2:56 AM 70.7 °F 66.6 °F 87% 29.95 in 10.0 mi Calm Calm - 0.00 in Rain Light Rain
3:03 AM 69.8 °F 66.2 °F 88% 29.95 in 10.0 mi Calm Calm - N/A   Overcast
3:05 AM 69.8 °F 66.2 °F 88% 29.95 in 10.0 mi Calm Calm - N/A   Light Drizzle
3:22 AM 69.8 °F 64.4 °F 83% 29.95 in 10.0 mi North 9.2 mph - N/A   Overcast
3:34 AM 68.0 °F 64.4 °F 88% 29.95 in 10.0 mi North 6.9 mph - N/A Rain Light Rain
3:50 AM 68.0 °F 62.6 °F 83% 29.95 in 10.0 mi North 11.5 mph 18.4 mph N/A   Light Drizzle
3:51 AM 68.0 °F 62.6 °F 83% 29.95 in 10.0 mi North 11.5 mph 19.6 mph N/A   Overcast
3:56 AM 67.8 °F 62.1 °F 82% 29.95 in 10.0 mi North 11.5 mph 19.6 mph 0.01 in   Overcast
4:04 AM 68.0 °F 62.6 °F 83% 29.95 in 10.0 mi North 11.5 mph 19.6 mph N/A   Overcast
4:07 AM 68.0 °F 62.6 °F 83% 29.95 in 10.0 mi North 11.5 mph 19.6 mph N/A Rain Light Rain
4:21 AM 68.0 °F 60.8 °F 78% 29.96 in 10.0 mi North 4.6 mph - N/A   Overcast
4:22 AM 68.0 °F 60.8 °F 78% 29.96 in 10.0 mi North 4.6 mph - N/A   Light Drizzle
4:38 AM 66.2 °F 60.8 °F 83% 29.98 in 10.0 mi Calm Calm - N/A Rain Light Rain
4:54 AM 66.2 °F 60.8 °F 83% 29.99 in 6.0 mi North 3.5 mph - N/A Rain Light Rain
4:56 AM 65.3 °F 61.0 °F 86% 29.99 in 6.0 mi Calm Calm - 0.02 in Rain Rain
5:04 AM 64.4 °F 60.8 °F 88% 29.99 in 9.0 mi ENE 3.5 mph - N/A Rain Light Rain
5:12 AM 64.4 °F 60.8 °F 88% 29.99 in 10.0 mi Calm Calm - N/A Rain Light Rain
5:22 AM 64.4 °F 60.8 °F 88% 29.99 in 10.0 mi East 3.5 mph - N/A   Overcast
5:52 AM 64.4 °F 60.8 °F 88% 30.00 in 10.0 mi Calm Calm - N/A   Light Drizzle
5:56 AM 64.6 °F 61.0 °F 88% 30.00 in 10.0 mi Calm Calm - 0.01 in   Light Drizzle
6:12 AM 64.4 °F 60.8 °F 88% 30.01 in 10.0 mi Calm Calm - N/A   Overcast
6:43 AM 64.4 °F 60.8 °F 88% 30.01 in 10.0 mi Calm Calm - N/A   Light Drizzle
6:56 AM 64.8 °F 61.7 °F 90% 30.02 in 10.0 mi Calm Calm - 0.01 in Rain Light Rain
7:56 AM 64.4 °F 60.8 °F 88% 30.04 in 10.0 mi Calm Calm - 0.05 in   Light Drizzle
9:34 AM 64.4 °F 62.6 °F 94% 30.04 in 10.0 mi SE 3.5 mph - N/A Rain Light Rain
9:56 AM 64.8 °F 62.1 °F 91% 30.06 in 10.0 mi Calm Calm - 0.13 in Rain Light Rain
10:28 AM 64.4 °F 62.6 °F 94% 30.06 in 10.0 mi WNW 3.5 mph - N/A Rain Light Rain
10:56 AM 65.8 °F 62.4 °F 89% 30.06 in 10.0 mi Calm Calm - 0.01 in Rain Light Rain
11:21 AM 66.2 °F 62.6 °F 88% 30.05 in 10.0 mi Calm Calm - N/A   Mostly Cloudy
11:51 AM 68.0 °F 62.6 °F 83% 30.07 in 10.0 mi Calm Calm - N/A   Light Drizzle
11:56 AM 67.1 °F 62.1 °F 84% 30.06 in 10.0 mi Calm Calm - 0.00 in   Light Drizzle
12:14 PM 68.0 °F 62.6 °F 83% 30.05 in 10.0 mi SW 3.5 mph - N/A   Overcast
12:22 PM 68.0 °F 62.6 °F 83% 30.05 in 10.0 mi SSW 3.5 mph - N/A   Mostly Cloudy
12:56 PM 68.7 °F 62.2 °F 80% 30.05 in 10.0 mi WSW 4.6 mph - 0.00 in   Mostly Cloudy
1:56 PM 70.5 °F 61.9 °F 74% 30.05 in 10.0 mi Calm Calm - N/A   Mostly Cloudy
2:04 PM 69.8 °F 60.8 °F 73% 30.05 in 10.0 mi Calm Calm - N/A   Mostly Cloudy
2:12 PM 71.6 °F 60.8 °F 69% 30.05 in 10.0 mi Calm Calm - N/A   Mostly Cloudy
2:56 PM 71.6 °F 59.0 °F 64% 30.04 in 10.0 mi Calm Calm - N/A   Mostly Cloudy
3:56 PM 71.8 °F 59.4 °F 65% 30.04 in 10.0 mi NNW 3.5 mph - N/A   Scattered Clouds
4:56 PM 73.0 °F 57.9 °F 59% 30.04 in 10.0 mi North 4.6 mph - N/A   Overcast
5:56 PM 73.4 °F 57.2 °F 57% 30.04 in 10.0 mi North 6.9 mph - N/A   Clear
6:56 PM 72.3 °F 55.2 °F 55% 30.06 in 10.0 mi NNE 3.5 mph - N/A   Clear
7:56 PM 64.6 °F 58.3 °F 80% 30.06 in 10.0 mi Calm Calm - N/A   Clear
8:56 PM 62.8 °F 57.2 °F 82% 30.07 in 10.0 mi Calm Calm - N/A   Clear
9:56 PM 61.2 °F 56.7 °F 85% 30.10 in 10.0 mi Calm Calm - N/A   Clear
10:56 PM 62.4 °F 54.0 °F 74% 30.12 in 10.0 mi Calm Calm - N/A   Clear
11:56 PM 64.0 °F 53.6 °F 69% 30.13 in 10.0 mi North 5.8 mph - N/A   Clear